Regional Weather Roundup
Issued by NWS

Home | Current Version | Previous Version | Graphics & Text | Print | Product List | Glossary On
Versions: 1 2 3 4 5 6 7 8 9 10 11 12 13 14 15 16 17 18 19 20 21 22 23 24 25 26 27 28 29 30 31 32 33 34 35 36 37 38 39 40 41 42 43 44 45 46 47 48 49 50
000
ASUS43 KOAX 041002
RWRNE

WEATHER ROUNDUP FOR NEBRASKA
NATIONAL WEATHER SERVICE OMAHA NE
500 AM CDT FRI SEP 04 2015

NOTES: SATELLITE DATA IS BEING USED TO AUGMENT CLOUD COVER ABOVE
       12000 FEET.
       "FAIR" INDICATES FEW OR NO CLOUDS BELOW 12,000 FEET WITH NO
       SIGNIFICANT WEATHER AND/OR OBSTRUCTIONS TO VISIBILITY.

  * THESE STATIONS DO NOT REPORT WEATHER SUCH AS RAIN...SNOW OR FOG.

NEZ001>004-019>022-054>056-041100-
NEBRASKA PANHANDLE

CITY           SKY/WX    TMP DP  RH WIND       PRES   REMARKS
SCOTTSBLUFF    CLEAR     58  53  84 NE5       29.87F
ALLIANCE       CLEAR     55  51  86 W10       29.86R
CHADRON        CLOUDY    70  54  56 S9        29.80R
KIMBALL        CLEAR     51  49  92 W5        29.92S
SIDNEY         CLEAR     52  49  89 W6        29.91R
$$

NEZ057>060-069>072-079>082-041100-
SOUTHWEST NEBRASKA

CITY           SKY/WX    TMP DP  RH WIND       PRES   REMARKS
NORTH PLATTE   CLOUDY    66  62  87 NW6       29.80R
IMPERIAL       MOCLDY    65  62  90 NW6       29.83F
LEXINGTON      PTCLDY    72  63  72 SE10      29.78F
MC COOK        MOCLDY    74  58  57 SE8       29.77S
OGALLALA       PTCLDY    62  61  94 W3        29.84R
$$

NEZ005>010-023>029-035>040-094-041100-
NORTH CENTRAL NEBRASKA

CITY           SKY/WX    TMP DP  RH WIND       PRES   REMARKS
VALENTINE      CLOUDY    67  63  87 NW8       29.76F
AINSWORTH      CLOUDY    70  63  78 N6        29.75S
BROKEN BOW     MOCLDY    73  63  70 SE10      29.78S
O`NEILL        CLOUDY    74  65  72 S10       29.80S
ORD            CLOUDY    70  65  84 SE10      29.79S
THEDFORD       CLOUDY    71  62  74 SW7       29.80R
$$

NEZ041-046>049-061>064-073>077-083>087-041100-
SOUTH CENTRAL NEBRASKA

CITY           SKY/WX    TMP DP  RH WIND       PRES   REMARKS
GRAND ISLAND   CLOUDY    73  65  75 SE9G18    29.84R
AURORA         TSTM      71  68  90 W6        29.86R
HASTINGS       MOCLDY    72  65  78 SE12      29.83R
HEBRON         TSTM      73  64  75 S22G39    29.88R
HOLDREGE       PTCLDY    70  60  70 SE6       29.81S
KEARNEY *      PTCLDY    72  59  64 SE6       29.82S
YORK           CLOUDY    75  66  73 S12       29.85R
$$

NEZ011>018-030>034-042>045-041100-
NORTHEAST NEBRASKA

CITY           SKY/WX    TMP DP  RH WIND       PRES   REMARKS
NORFOLK        MOCLDY    75  65  70 S14       29.82S
ALBION         CLOUDY    73  64  73 S12G17    29.82S
BLAIR          FAIR      73  66  80 S12       29.86S
COLUMBUS *     CLOUDY    73  64  73 CALM      29.86R
FREMONT        MOCLDY    74  67  77 SE7       29.85S
TEKAMAH        PTCLDY    71  69  93 SE5       29.85R
$$

NEZ050>053-065>068-078-088>093-041100-
SOUTHEAST NEBRASKA

CITY           SKY/WX    TMP DP  RH WIND       PRES   REMARKS
LINCOLN        CLOUDY    76  67  73 S10       29.85F
OMAHA EPPLEY   MOCLDY    75  68  78 S14       29.87R
BEATRICE       MOCLDY    74  67  79 S14       29.87S
FALLS CITY       N/A     74  68  81 S8        29.89S
NEBRASKA CITY  CLOUDY    71  68  90 S8        29.89S
PLATTSMOUTH    MOCLDY    71  67  86 SE9       29.88S
$$

NEZ044-045-051>053-067-041100-
OMAHA AREA

CITY           SKY/WX    TMP DP  RH WIND       PRES   REMARKS
EPPLEY FIELD   MOCLDY    75  68  78 S14       29.87R
BLAIR          PTCLDY    73  66  80 S12       29.86S
FREMONT        MOCLDY    74  67  77 SE7       29.85S
MILLARD        MOCLDY    74  69  82 SE5       29.86S
OFFUTT AFB     MOCLDY    72  70  94 E7        29.86S
PLATTSMOUTH    MOCLDY    71  67  86 SE9       29.88S
WAHOO          FAIR      72  68  88 SE9       29.84F
$$


USA.gov is the U.S. government's official web portal to all federal, state and local government web resources and services.